DW1297 Weather Reports


Display with metric or nautical units.
time (UTC)temp
F
wind
direction
speed
MPH
gust
MPH
rain 1hr
in
rain 24hr
in
rain mn
in
humidity
%
barometer
mb
20260506123010 48 342 0.0 0.0 0.00 0.00 0.00 86 1019.8
20260506121515 48 342 0.0 0.0 0.00 0.00 0.00 85 1019.6
20260506114512 48 342 0.0 0.0 0.00 0.00 0.00 85 1019.3
20260506111513 49 342 0.0 0.0 0.00 0.00 0.00 85 1019.2
20260506110014 49 342 0.0 0.0 0.00 0.00 0.00 84 1019.2
20260506104522 49 342 0.0 0.0 0.00 0.00 0.00 84 1019.2
20260506103020 49 342 0.0 0.0 0.00 0.00 0.00 84 1019.2
20260506100014 50 342 0.0 0.0 0.00 0.00 0.00 83 1018.9
20260506094517 50 342 0.0 0.0 0.00 0.00 0.00 83 1018.7
20260506093016 50 342 0.0 0.0 0.00 0.00 0.00 82 1018.4
20260506091509 51 342 0.0 0.0 0.00 0.00 0.00 82 1018.3
20260506090011 51 342 0.0 0.0 0.00 0.00 0.00 82 1018.6
20260506084508 51 342 0.0 0.0 0.00 0.00 0.00 82 1018.7
20260506073018 53 342 0.0 0.0 0.00 0.00 0.00 79 1018.5
20260506071513 53 342 0.0 0.0 0.00 0.00 0.00 78 1018.4
20260506061531 55 342 0.0 0.0 0.00 0.00 0.00 77 1017.9
20260506043024 59 342 0.0 0.0 0.00 0.00 0.00 70 1017.1
20260506041517 59 342 0.0 0.0 0.00 0.00 0.00 69 1016.8
20260506040033 60 342 0.0 0.0 0.00 0.00 0.00 67 1016.7
20260506034513 61 342 0.0 0.0 0.00 0.00 0.00 66 1016.3
20260506033022 62 342 0.0 0.0 0.00 0.00 0.00 65 1016.1
20260506031541 63 342 0.0 0.0 0.00 0.00 0.00 63 1015.9
20260506030024 64 342 0.0 0.0 0.00 0.00 0.00 61 1015.8
20260506024521 64 342 0.0 0.0 0.00 0.00 0.00 60 1015.7
20260506023016 65 342 0.0 0.0 0.00 0.00 0.00 59 1015.6
20260506021522 66 342 0.0 4.0 0.00 0.00 0.00 57 1015.4
20260506020022 66 360 0.0 0.0 0.00 0.00 0.00 56 1015.4
20260506013025 67 360 0.0 0.0 0.00 0.00 0.00 54 1015.2
20260506011523 67 296 0.0 0.0 0.00 0.00 0.00 52 1015.3
20260506010022 67 331 0.0 0.0 0.00 0.00 0.00 52 1015.2
20260506003024 67 355 1.0 5.0 0.00 0.00 0.00 52 1015.2
20260505234509 68 218 0.0 4.0 0.00 0.00 0.00 51 1015.3
20260505233007 69 360 0.0 0.0 0.00 0.00 0.00 50 1015.3
20260505231512 70 360 0.0 5.0 0.00 0.00 0.00 48 1015.2
20260505230019 70 334 1.0 8.0 0.00 0.00 0.00 47 1015.2
20260505224508 71 205 0.0 0.0 0.00 0.00 0.00 45 1015.2
20260505223014 71 346 0.0 8.0 0.00 0.00 0.00 45 1015.2
20260505221509 70 329 0.0 5.0 0.00 0.00 0.00 47 1015.3
20260505220005 70 215 0.0 5.0 0.00 0.00 0.00 47 1015.2
20260505214518 70 184 0.0 6.0 0.00 0.00 0.00 47 1015.4
20260505213012 70 238 0.0 9.0 0.00 0.00 0.00 49 1015.5
20260505211516 70 197 0.0 6.0 0.00 0.00 0.00 49 1015.6
20260505210020 71 298 0.0 8.0 0.00 0.00 0.00 47 1015.6
20260505204512 71 182 2.0 10.0 0.00 0.00 0.00 48 1015.6
20260505203007 71 201 2.0 6.0 0.00 0.00 0.00 49 1015.6
20260505201520 69 214 1.0 6.0 0.00 0.00 0.00 51 1015.4
20260505193018 67 213 0.0 7.0 0.00 0.00 0.00 55 1015.9
20260505190013 64 189 0.0 4.0 0.00 0.00 0.00 61 1015.9
20260505184510 63 333 0.0 6.0 0.00 0.00 0.00 62 1016.0
20260505183022 62 210 0.0 6.0 0.00 0.00 0.00 65 1016.1
20260505181503 61 209 0.0 8.0 0.00 0.00 0.00 68 1015.9
20260505180009 60 208 0.0 7.0 0.00 0.00 0.00 70 1016.0
20260505174509 59 238 0.0 4.0 0.00 0.00 0.00 75 1015.9
20260505173004 57 267 0.0 6.0 0.00 0.00 0.00 79 1015.9
20260505171508 56 211 0.0 2.0 0.00 0.00 0.00 83 1015.7
20260505170016 55 267 0.0 4.0 0.00 0.00 0.00 84 1015.7
20260505164505 54 348 0.0 0.0 0.00 0.00 0.00 85 1015.6
20260505161505 53 221 0.0 0.0 0.00 0.00 0.00 88 1015.5
20260505151516 52 219 0.0 2.0 0.00 0.00 0.00 89 1015.3
20260505124518 53 220 0.0 4.0 0.00 0.00 0.00 86 1014.4